Year,Month,Day,Hour,Minute,Value (Times are PST for temperature in C)
2013,07,23,00,00,14.60
2013,07,23,00,01,14.60
2013,07,23,00,02,14.60
2013,07,23,00,03,14.60
2013,07,23,00,04,14.60
2013,07,23,00,05,14.50
2013,07,23,00,06,14.50
2013,07,23,00,07,14.50
2013,07,23,00,08,14.50
2013,07,23,00,09,14.50
2013,07,23,00,10,14.50
2013,07,23,00,11,14.50
2013,07,23,00,12,14.50
2013,07,23,00,13,14.50
2013,07,23,00,14,14.40
2013,07,23,00,15,14.40
2013,07,23,00,16,14.40
2013,07,23,00,17,14.40
2013,07,23,00,18,14.40
2013,07,23,00,19,14.40
2013,07,23,00,20,14.40
2013,07,23,00,21,14.40
2013,07,23,00,22,14.40
2013,07,23,00,23,14.30
2013,07,23,00,24,14.30
2013,07,23,00,25,14.30
2013,07,23,00,26,14.30
2013,07,23,00,27,14.30
2013,07,23,00,28,14.30
2013,07,23,00,29,14.30
2013,07,23,00,30,14.30
2013,07,23,00,31,14.30
2013,07,23,00,32,14.30
2013,07,23,00,33,14.30
2013,07,23,00,34,14.20
2013,07,23,00,35,14.20
2013,07,23,00,36,14.20
2013,07,23,00,37,14.20
2013,07,23,00,38,14.20
2013,07,23,00,39,14.20
2013,07,23,00,40,14.20
2013,07,23,00,41,14.20
2013,07,23,00,42,14.20
2013,07,23,00,43,14.20
2013,07,23,00,44,14.20
2013,07,23,00,45,14.20
2013,07,23,00,46,14.10
2013,07,23,00,47,14.10
2013,07,23,00,48,14.10
2013,07,23,00,49,14.10
2013,07,23,00,50,14.10
2013,07,23,00,51,14.10
2013,07,23,00,52,14.10
2013,07,23,00,53,14.00
2013,07,23,00,54,14.00
2013,07,23,00,55,14.00
2013,07,23,00,56,13.90
2013,07,23,00,57,13.90
2013,07,23,00,58,13.90
2013,07,23,00,59,13.90
2013,07,23,01,00,13.90
2013,07,23,01,01,13.90
2013,07,23,01,02,13.90
2013,07,23,01,03,13.90
2013,07,23,01,04,13.90
2013,07,23,01,05,13.90
2013,07,23,01,06,13.90
2013,07,23,01,07,13.90
2013,07,23,01,08,13.90
2013,07,23,01,09,13.90
2013,07,23,01,10,13.80
2013,07,23,01,11,13.80
2013,07,23,01,12,13.80
2013,07,23,01,13,13.80
2013,07,23,01,14,13.80
2013,07,23,01,15,13.80
2013,07,23,01,16,13.80
2013,07,23,01,17,13.80
2013,07,23,01,18,13.80
2013,07,23,01,19,13.70
2013,07,23,01,20,13.70
2013,07,23,01,21,13.70
2013,07,23,01,22,13.70
2013,07,23,01,23,13.70
2013,07,23,01,24,13.70
2013,07,23,01,25,13.70
2013,07,23,01,26,13.70
2013,07,23,01,27,13.70
2013,07,23,01,28,13.70
2013,07,23,01,29,13.60
2013,07,23,01,30,13.60
2013,07,23,01,31,13.60
2013,07,23,01,32,13.60
2013,07,23,01,33,13.60
2013,07,23,01,34,13.60
2013,07,23,01,35,13.60
2013,07,23,01,36,13.60
2013,07,23,01,37,13.60
2013,07,23,01,38,13.60
2013,07,23,01,39,13.60
2013,07,23,01,40,13.50
2013,07,23,01,41,13.50
2013,07,23,01,42,13.50
2013,07,23,01,43,13.50
2013,07,23,01,44,13.50
2013,07,23,01,45,13.50
2013,07,23,01,46,13.50
2013,07,23,01,47,13.50
2013,07,23,01,48,13.40
2013,07,23,01,49,13.40
2013,07,23,01,50,13.40
2013,07,23,01,51,13.40
2013,07,23,01,52,13.40
2013,07,23,01,53,13.40
2013,07,23,01,54,13.40
2013,07,23,01,55,13.40
2013,07,23,01,56,13.40
2013,07,23,01,57,13.40
2013,07,23,01,58,13.40
2013,07,23,01,59,13.30
2013,07,23,02,00,13.30
2013,07,23,02,01,13.30
2013,07,23,02,02,13.30
2013,07,23,02,03,13.30
2013,07,23,02,04,13.30
2013,07,23,02,05,13.30
2013,07,23,02,06,13.30
2013,07,23,02,07,13.30
2013,07,23,02,08,13.30
2013,07,23,02,09,13.30
2013,07,23,02,10,13.30
2013,07,23,02,11,13.30
2013,07,23,02,12,13.30
2013,07,23,02,13,13.30
2013,07,23,02,14,13.30
2013,07,23,02,15,13.20
2013,07,23,02,16,13.20
2013,07,23,02,17,13.20
2013,07,23,02,18,13.20
2013,07,23,02,19,13.20
2013,07,23,02,20,13.20
2013,07,23,02,21,13.20
2013,07,23,02,22,13.20
2013,07,23,02,23,13.10
2013,07,23,02,24,13.10
2013,07,23,02,25,13.10
2013,07,23,02,26,13.10
2013,07,23,02,27,13.10
2013,07,23,02,28,13.10
2013,07,23,02,29,13.10
2013,07,23,02,30,13.00
2013,07,23,02,31,13.00
2013,07,23,02,32,13.00
2013,07,23,02,33,13.00
2013,07,23,02,34,13.00
2013,07,23,02,35,13.00
2013,07,23,02,36,13.00
2013,07,23,02,37,13.00
2013,07,23,02,38,13.00
2013,07,23,02,39,13.00
2013,07,23,02,40,13.00
2013,07,23,02,41,13.00
2013,07,23,02,42,13.00
2013,07,23,02,43,13.00
2013,07,23,02,44,13.00
2013,07,23,02,45,13.00
2013,07,23,02,46,13.00
2013,07,23,02,47,13.00
2013,07,23,02,48,13.00
2013,07,23,02,49,13.00
2013,07,23,02,50,12.90
2013,07,23,02,51,12.90
2013,07,23,02,52,12.90
2013,07,23,02,53,12.90
2013,07,23,02,54,12.90
2013,07,23,02,55,12.90
2013,07,23,02,56,12.90
2013,07,23,02,57,12.90
2013,07,23,02,58,12.90
2013,07,23,02,59,12.90
2013,07,23,03,00,12.90
2013,07,23,03,01,12.90
2013,07,23,03,02,12.90
2013,07,23,03,03,12.90
2013,07,23,03,04,12.90
2013,07,23,03,05,12.90
2013,07,23,03,06,12.90
2013,07,23,03,07,13.00
2013,07,23,03,08,13.00
2013,07,23,03,09,13.00
2013,07,23,03,10,13.00
2013,07,23,03,11,13.00
2013,07,23,03,12,12.90
2013,07,23,03,13,12.90
2013,07,23,03,14,12.90
2013,07,23,03,15,12.80
2013,07,23,03,16,12.80
2013,07,23,03,17,12.80
2013,07,23,03,18,12.80
2013,07,23,03,19,12.80
2013,07,23,03,20,12.80
2013,07,23,03,21,12.80
2013,07,23,03,22,12.80
2013,07,23,03,23,12.80
2013,07,23,03,24,12.80
2013,07,23,03,25,12.80
2013,07,23,03,26,12.80
2013,07,23,03,27,12.80
2013,07,23,03,28,12.70
2013,07,23,03,29,12.70
2013,07,23,03,30,12.70
2013,07,23,03,31,12.70
2013,07,23,03,32,12.70
2013,07,23,03,33,12.70
2013,07,23,03,34,12.70
2013,07,23,03,35,12.70
2013,07,23,03,36,12.70
2013,07,23,03,37,12.70
2013,07,23,03,38,12.60
2013,07,23,03,39,12.60
2013,07,23,03,40,12.60
2013,07,23,03,41,12.60
2013,07,23,03,42,12.60
2013,07,23,03,43,12.60
2013,07,23,03,44,12.60
2013,07,23,03,45,12.60
2013,07,23,03,46,12.60
2013,07,23,03,47,12.60
2013,07,23,03,48,12.60
2013,07,23,03,49,12.70
2013,07,23,03,50,12.70
2013,07,23,03,51,12.70
2013,07,23,03,52,12.70
2013,07,23,03,53,12.70
2013,07,23,03,54,12.70
2013,07,23,03,55,12.70
2013,07,23,03,56,12.70
2013,07,23,03,57,12.70
2013,07,23,03,58,12.70
2013,07,23,03,59,12.70
2013,07,23,04,00,12.70
2013,07,23,04,01,12.70
2013,07,23,04,02,12.60
2013,07,23,04,03,12.60
2013,07,23,04,04,12.60
2013,07,23,04,05,12.50
2013,07,23,04,06,12.50
2013,07,23,04,07,12.50
2013,07,23,04,08,12.50
2013,07,23,04,09,12.50
2013,07,23,04,10,12.50
2013,07,23,04,11,12.50
2013,07,23,04,12,12.50
2013,07,23,04,13,12.60
2013,07,23,04,14,12.60
2013,07,23,04,15,12.70
2013,07,23,04,16,12.70
2013,07,23,04,17,12.70
2013,07,23,04,18,12.70
2013,07,23,04,19,12.70
2013,07,23,04,20,12.70
2013,07,23,04,21,12.70
2013,07,23,04,22,12.70
2013,07,23,04,23,12.60
2013,07,23,04,24,12.60
2013,07,23,04,25,12.50
2013,07,23,04,26,12.50
2013,07,23,04,27,12.40
2013,07,23,04,28,12.40
2013,07,23,04,29,12.40
2013,07,23,04,30,12.40
2013,07,23,04,31,12.30
2013,07,23,04,32,12.30
2013,07,23,04,33,12.30
2013,07,23,04,34,12.30
2013,07,23,04,35,12.20
2013,07,23,04,36,12.20
2013,07,23,04,37,12.20
2013,07,23,04,38,12.20
2013,07,23,04,39,12.20
2013,07,23,04,40,12.20
2013,07,23,04,41,12.20
2013,07,23,04,42,12.20
2013,07,23,04,43,12.20
2013,07,23,04,44,12.20
2013,07,23,04,45,12.20
2013,07,23,04,46,12.10
2013,07,23,04,47,12.10
2013,07,23,04,48,12.20
2013,07,23,04,49,12.20
2013,07,23,04,50,12.20
2013,07,23,04,51,12.20
2013,07,23,04,52,12.20
2013,07,23,04,53,12.20
2013,07,23,04,54,12.20
2013,07,23,04,55,12.20
2013,07,23,04,56,12.20
2013,07,23,04,57,12.20
2013,07,23,04,58,12.20
2013,07,23,04,59,12.20
2013,07,23,05,00,12.30
2013,07,23,05,01,12.30
2013,07,23,05,02,12.30
2013,07,23,05,03,12.30
2013,07,23,05,04,12.30
2013,07,23,05,05,12.30
2013,07,23,05,06,12.30
2013,07,23,05,07,12.30
2013,07,23,05,08,12.20
2013,07,23,05,09,12.20
2013,07,23,05,10,12.20
2013,07,23,05,11,12.20
2013,07,23,05,12,12.20
2013,07,23,05,13,12.20
2013,07,23,05,14,12.20
2013,07,23,05,15,12.20
2013,07,23,05,16,12.20
2013,07,23,05,17,12.20
2013,07,23,05,18,12.20
2013,07,23,05,19,12.20
2013,07,23,05,20,12.10
2013,07,23,05,21,12.10
2013,07,23,05,22,12.10
2013,07,23,05,23,12.10
2013,07,23,05,24,12.10
2013,07,23,05,25,12.10
2013,07,23,05,26,12.10
2013,07,23,05,27,12.10
2013,07,23,05,28,12.00
2013,07,23,05,29,12.00
2013,07,23,05,30,12.00
2013,07,23,05,31,12.00
2013,07,23,05,32,12.00
2013,07,23,05,33,11.90
2013,07,23,05,34,11.90
2013,07,23,05,35,11.90
2013,07,23,05,36,11.90
2013,07,23,05,37,11.90
2013,07,23,05,38,11.90
2013,07,23,05,39,11.90
2013,07,23,05,40,11.90
2013,07,23,05,41,11.90
2013,07,23,05,42,11.90
2013,07,23,05,43,11.90
2013,07,23,05,44,11.90
2013,07,23,05,45,11.90
2013,07,23,05,46,11.90
2013,07,23,05,47,11.90
2013,07,23,05,48,11.90
2013,07,23,05,49,11.90
2013,07,23,05,50,11.90
2013,07,23,05,51,11.90
2013,07,23,05,52,11.90
2013,07,23,05,53,11.90
2013,07,23,05,54,11.80
2013,07,23,05,55,11.80
2013,07,23,05,56,11.80
2013,07,23,05,57,11.80
2013,07,23,05,58,11.80
2013,07,23,05,59,11.80
2013,07,23,06,00,11.90
2013,07,23,06,01,11.90
2013,07,23,06,02,11.90
2013,07,23,06,03,11.90
2013,07,23,06,04,11.90
2013,07,23,06,05,11.90
2013,07,23,06,06,11.90
2013,07,23,06,07,11.90
2013,07,23,06,08,11.90
2013,07,23,06,09,11.90
2013,07,23,06,10,11.90
2013,07,23,06,11,11.90
2013,07,23,06,12,11.90
2013,07,23,06,13,11.90
2013,07,23,06,14,11.90
2013,07,23,06,15,11.90
2013,07,23,06,16,11.90
2013,07,23,06,17,12.00
2013,07,23,06,18,12.00
2013,07,23,06,19,12.00
2013,07,23,06,20,12.00
2013,07,23,06,21,12.00
2013,07,23,06,22,12.00
2013,07,23,06,23,12.00
2013,07,23,06,24,12.00
2013,07,23,06,25,12.00
2013,07,23,06,26,12.00
2013,07,23,06,27,12.00
2013,07,23,06,28,12.00
2013,07,23,06,29,12.00
2013,07,23,06,30,12.10
2013,07,23,06,31,12.10
2013,07,23,06,32,12.10
2013,07,23,06,33,12.10
2013,07,23,06,34,12.10
2013,07,23,06,35,12.10
2013,07,23,06,36,12.10
2013,07,23,06,37,12.10
2013,07,23,06,38,12.20
2013,07,23,06,39,12.20
2013,07,23,06,40,12.20
2013,07,23,06,41,12.20
2013,07,23,06,42,12.30
2013,07,23,06,43,12.30
2013,07,23,06,44,12.30
2013,07,23,06,45,12.30
2013,07,23,06,46,12.40
2013,07,23,06,47,12.40
2013,07,23,06,48,12.40
2013,07,23,06,49,12.40
2013,07,23,06,50,12.50
2013,07,23,06,51,12.50
2013,07,23,06,52,12.50
2013,07,23,06,53,12.60
2013,07,23,06,54,12.60
2013,07,23,06,55,12.60
2013,07,23,06,56,12.60
2013,07,23,06,57,12.70
2013,07,23,06,58,12.70
2013,07,23,06,59,12.80
2013,07,23,07,00,12.80
2013,07,23,07,01,12.90
2013,07,23,07,02,13.00
2013,07,23,07,03,13.00
2013,07,23,07,04,13.10
2013,07,23,07,05,13.10
2013,07,23,07,06,13.20
2013,07,23,08,10,18.30
2013,07,23,08,11,18.40
2013,07,23,08,12,18.50
2013,07,23,08,13,18.60
2013,07,23,08,14,18.70
2013,07,23,08,15,18.80
2013,07,23,08,16,18.90
2013,07,23,08,17,19.00
2013,07,23,08,18,19.10
2013,07,23,08,19,19.10
2013,07,23,08,20,19.20
2013,07,23,08,21,19.30
2013,07,23,08,22,19.30
2013,07,23,08,23,19.20
2013,07,23,08,24,19.10
2013,07,23,08,25,19.10
2013,07,23,08,26,19.10
2013,07,23,08,27,19.10
2013,07,23,08,28,19.10
2013,07,23,08,29,19.10
2013,07,23,08,30,19.10
2013,07,23,08,31,19.10
2013,07,23,08,32,19.20
2013,07,23,08,33,19.30
2013,07,23,08,34,19.40
2013,07,23,08,35,19.50
2013,07,23,08,36,19.60
2013,07,23,08,37,19.70
2013,07,23,08,38,19.70
2013,07,23,08,39,19.70
2013,07,23,08,40,19.80
2013,07,23,08,41,19.80
2013,07,23,08,42,19.90
2013,07,23,08,43,19.80
2013,07,23,08,44,19.80
2013,07,23,08,45,19.80
2013,07,23,08,46,19.90
2013,07,23,08,47,19.90
2013,07,23,08,48,19.90
2013,07,23,08,49,20.00
2013,07,23,08,50,20.00
2013,07,23,08,51,20.10
2013,07,23,08,52,20.10
2013,07,23,08,53,20.10
2013,07,23,08,54,20.20
2013,07,23,08,55,20.30
2013,07,23,08,56,20.30
2013,07,23,08,57,20.30
2013,07,23,08,58,20.40
2013,07,23,08,59,20.40
2013,07,23,09,00,20.50
2013,07,23,09,01,20.50
2013,07,23,09,02,20.60
2013,07,23,09,03,20.60
2013,07,23,09,04,20.70
2013,07,23,09,05,20.70
2013,07,23,09,06,20.80
2013,07,23,09,07,20.80
2013,07,23,09,08,20.80
2013,07,23,09,09,20.70
2013,07,23,09,10,20.70
2013,07,23,09,11,20.70
2013,07,23,09,12,20.80
2013,07,23,09,13,20.80
2013,07,23,09,14,20.90
2013,07,23,09,15,20.90
2013,07,23,09,16,20.90
2013,07,23,09,17,20.90
2013,07,23,09,18,20.90
2013,07,23,09,19,20.90
2013,07,23,09,20,20.90
2013,07,23,09,21,20.90
2013,07,23,09,22,20.90
2013,07,23,09,23,21.00
2013,07,23,09,24,21.00
2013,07,23,09,25,20.90
2013,07,23,09,26,20.90
2013,07,23,09,27,20.90
2013,07,23,09,28,20.90
2013,07,23,09,29,20.80
2013,07,23,09,30,20.80
2013,07,23,09,31,20.80
2013,07,23,09,32,20.80
2013,07,23,09,33,20.70
2013,07,23,09,34,20.80
2013,07,23,09,35,20.80
2013,07,23,09,36,20.80
2013,07,23,09,37,20.90
2013,07,23,09,38,20.80
2013,07,23,09,39,20.90
2013,07,23,09,40,20.90
2013,07,23,09,41,20.90
2013,07,23,09,42,21.00
2013,07,23,09,43,21.00
2013,07,23,09,44,21.00
2013,07,23,09,45,21.10
2013,07,23,09,46,21.10
2013,07,23,09,47,21.20
2013,07,23,09,48,21.20
2013,07,23,09,49,21.20
2013,07,23,09,50,21.20
2013,07,23,09,51,21.20
2013,07,23,09,52,21.30
2013,07,23,09,53,21.30
2013,07,23,09,54,21.30
2013,07,23,09,55,21.30
2013,07,23,09,56,21.30
2013,07,23,09,57,21.30
2013,07,23,09,58,21.30
2013,07,23,09,59,21.40
2013,07,23,10,00,21.40
2013,07,23,10,01,21.40
2013,07,23,10,02,21.40
2013,07,23,10,03,21.40
2013,07,23,10,04,21.40
2013,07,23,10,05,21.40
2013,07,23,10,06,21.50
2013,07,23,10,07,21.50
2013,07,23,10,08,21.60
2013,07,23,10,09,21.60
2013,07,23,10,10,21.70
2013,07,23,10,11,21.80
2013,07,23,10,12,21.80
2013,07,23,10,13,21.90
2013,07,23,10,14,22.00
2013,07,23,10,15,22.10
2013,07,23,10,16,22.10
2013,07,23,10,17,22.10
2013,07,23,10,18,22.10
2013,07,23,10,19,22.20
2013,07,23,10,20,22.20
2013,07,23,10,21,22.20
2013,07,23,10,22,22.30
2013,07,23,10,23,22.30
2013,07,23,10,24,22.40
2013,07,23,10,25,22.50
2013,07,23,10,26,22.60
2013,07,23,10,27,22.70
2013,07,23,10,28,22.70
2013,07,23,10,29,22.80
2013,07,23,10,30,22.80
2013,07,23,10,31,22.90
2013,07,23,10,32,22.90
2013,07,23,10,33,22.90
2013,07,23,10,34,22.80
2013,07,23,10,35,22.80
2013,07,23,10,36,22.80
2013,07,23,10,37,22.80
2013,07,23,10,38,22.90
2013,07,23,10,39,23.00
2013,07,23,10,40,23.10
2013,07,23,10,41,23.10
2013,07,23,10,42,23.00
2013,07,23,10,43,22.90
2013,07,23,10,44,22.80
2013,07,23,10,45,22.80
2013,07,23,10,46,22.80
2013,07,23,10,47,22.80
2013,07,23,10,48,22.80
2013,07,23,10,49,23.00
2013,07,23,10,50,23.20
2013,07,23,10,51,23.30
2013,07,23,10,52,23.40
2013,07,23,10,53,23.40
2013,07,23,10,54,23.40
2013,07,23,10,55,23.40
2013,07,23,10,56,23.50
2013,07,23,10,57,23.50
2013,07,23,10,58,23.60
2013,07,23,10,59,23.60
2013,07,23,11,00,23.60
2013,07,23,11,01,23.50
2013,07,23,11,02,23.40
2013,07,23,11,03,23.40
2013,07,23,11,04,23.40
2013,07,23,11,05,23.50
2013,07,23,11,06,23.50
2013,07,23,11,07,23.60
2013,07,23,11,08,23.70
2013,07,23,11,09,23.70
2013,07,23,11,10,23.70
2013,07,23,11,11,23.70
2013,07,23,11,12,23.70
2013,07,23,11,13,23.70
2013,07,23,11,14,23.70
2013,07,23,11,15,23.80
2013,07,23,11,16,23.80
2013,07,23,11,17,23.80
2013,07,23,11,18,23.90
2013,07,23,11,19,24.00
2013,07,23,11,20,24.00
2013,07,23,11,21,24.10
2013,07,23,11,22,24.10
2013,07,23,11,23,24.10
2013,07,23,11,24,24.00
2013,07,23,11,25,23.90
2013,07,23,11,26,23.90
2013,07,23,11,27,23.70
2013,07,23,11,28,23.60
2013,07,23,11,29,23.60
2013,07,23,11,30,23.60
2013,07,23,11,31,23.70
2013,07,23,11,32,23.70
2013,07,23,11,33,23.80
2013,07,23,11,34,23.80
2013,07,23,11,35,23.80
2013,07,23,11,36,23.80
2013,07,23,11,37,23.80
2013,07,23,11,38,23.80
2013,07,23,11,39,23.80
2013,07,23,11,40,23.90
2013,07,23,11,41,23.90
2013,07,23,11,42,23.90
2013,07,23,11,43,23.80
2013,07,23,11,44,23.70
2013,07,23,11,45,23.80
2013,07,23,11,46,23.80
2013,07,23,11,47,23.90
2013,07,23,11,48,23.90
2013,07,23,11,49,24.00
2013,07,23,11,50,24.10
2013,07,23,11,51,24.20
2013,07,23,11,52,24.40
2013,07,23,11,53,24.50
2013,07,23,11,54,24.60
2013,07,23,11,55,24.80
2013,07,23,11,56,24.90
2013,07,23,11,57,25.00
2013,07,23,11,58,25.10
2013,07,23,11,59,25.20
2013,07,23,12,00,25.40
2013,07,23,12,01,25.40
2013,07,23,12,02,25.50
2013,07,23,12,03,25.50
2013,07,23,12,04,25.60
2013,07,23,12,05,25.70
2013,07,23,12,06,25.60
2013,07,23,12,07,25.70
2013,07,23,12,08,25.70
2013,07,23,12,09,25.70
2013,07,23,12,10,25.70
2013,07,23,12,11,25.70
2013,07,23,12,12,25.60
2013,07,23,12,13,25.50
2013,07,23,12,14,25.50
2013,07,23,12,15,25.50
2013,07,23,12,16,25.40
2013,07,23,12,17,25.30
2013,07,23,12,18,25.10
2013,07,23,12,19,24.90
2013,07,23,12,20,24.80
2013,07,23,12,21,24.80
2013,07,23,12,22,24.80
2013,07,23,12,23,24.80
2013,07,23,12,24,24.70
2013,07,23,12,25,24.70
2013,07,23,12,26,24.80
2013,07,23,12,27,24.80
2013,07,23,12,28,24.70
2013,07,23,12,29,24.60
2013,07,23,12,30,24.60
2013,07,23,12,31,24.70
2013,07,23,12,32,24.80
2013,07,23,12,33,24.90
2013,07,23,12,34,25.00
2013,07,23,12,35,25.10
2013,07,23,12,36,25.30
2013,07,23,12,37,25.30
2013,07,23,12,38,25.20
2013,07,23,12,39,25.10
2013,07,23,12,40,25.00
2013,07,23,12,41,24.90
2013,07,23,12,42,25.00
2013,07,23,12,43,25.00
2013,07,23,12,44,25.00
2013,07,23,12,45,25.10
2013,07,23,12,46,25.10
2013,07,23,12,47,25.10
2013,07,23,12,48,25.10
2013,07,23,12,49,25.10
2013,07,23,12,50,25.00
2013,07,23,12,51,25.00
2013,07,23,12,52,25.10
2013,07,23,12,53,25.10
2013,07,23,12,54,25.20
2013,07,23,12,55,25.40
2013,07,23,12,56,25.40
2013,07,23,12,57,25.50
2013,07,23,12,58,25.50
2013,07,23,12,59,25.50
2013,07,23,13,00,25.60
2013,07,23,13,01,25.60
2013,07,23,13,02,25.60
2013,07,23,13,03,25.60
2013,07,23,13,04,25.50
2013,07,23,13,05,25.40
2013,07,23,13,06,25.20
2013,07,23,13,07,25.10
2013,07,23,13,08,25.10
2013,07,23,13,09,25.00
2013,07,23,13,10,24.90
2013,07,23,13,11,24.80
2013,07,23,13,12,24.90
2013,07,23,13,13,25.00
2013,07,23,13,14,25.00
2013,07,23,13,15,24.90
2013,07,23,13,16,25.00
2013,07,23,13,17,25.00
2013,07,23,13,18,25.10
2013,07,23,13,19,25.10
2013,07,23,13,20,25.10
2013,07,23,13,21,25.00
2013,07,23,13,22,24.90
2013,07,23,13,23,24.80
2013,07,23,13,24,24.70
2013,07,23,13,25,24.70
2013,07,23,13,26,24.70
2013,07,23,13,27,24.70
2013,07,23,13,28,24.80
2013,07,23,13,29,25.00
2013,07,23,13,30,25.10
2013,07,23,13,31,25.20
2013,07,23,13,32,25.20
2013,07,23,13,33,25.20
2013,07,23,13,34,25.20
2013,07,23,13,35,25.30
2013,07,23,13,36,25.30
2013,07,23,13,37,25.40
2013,07,23,13,38,25.40
2013,07,23,13,39,25.40
2013,07,23,13,40,25.40
2013,07,23,13,41,25.20
2013,07,23,13,42,25.20
2013,07,23,13,43,25.20
2013,07,23,13,44,25.20
2013,07,23,13,45,25.30
2013,07,23,13,46,25.40
2013,07,23,13,47,25.40
2013,07,23,13,48,25.40
2013,07,23,13,49,25.50
2013,07,23,13,50,25.50
2013,07,23,13,51,25.50
2013,07,23,13,52,25.40
2013,07,23,13,53,25.30
2013,07,23,13,54,25.30
2013,07,23,13,55,25.20
2013,07,23,13,56,25.20
2013,07,23,13,57,25.20
2013,07,23,13,58,25.20
2013,07,23,13,59,25.20
2013,07,23,14,00,25.10
2013,07,23,14,01,25.10
2013,07,23,14,02,25.10
2013,07,23,14,03,25.00
2013,07,23,14,04,24.90
2013,07,23,14,05,24.70
2013,07,23,14,06,24.60
2013,07,23,14,07,24.70
2013,07,23,14,08,24.70
2013,07,23,14,09,24.60
2013,07,23,14,10,24.40
2013,07,23,14,11,24.30
2013,07,23,14,12,24.20
2013,07,23,14,13,24.10
2013,07,23,14,14,24.00
2013,07,23,14,15,23.90
2013,07,23,14,16,23.80
2013,07,23,14,17,23.80
2013,07,23,14,18,23.80
2013,07,23,14,19,23.70
2013,07,23,14,20,23.60
2013,07,23,14,21,23.60
2013,07,23,14,22,23.60
2013,07,23,14,23,23.70
2013,07,23,14,24,23.70
2013,07,23,14,25,23.70
2013,07,23,14,26,23.70
2013,07,23,14,27,23.80
2013,07,23,14,28,23.70
2013,07,23,14,29,23.70
2013,07,23,14,30,23.60
2013,07,23,14,31,23.50
2013,07,23,14,32,23.40
2013,07,23,14,33,23.20
2013,07,23,14,34,23.20
2013,07,23,14,35,23.10
2013,07,23,14,36,23.00
2013,07,23,14,37,22.90
2013,07,23,14,38,22.80
2013,07,23,14,39,22.60
2013,07,23,14,40,22.50
2013,07,23,14,41,22.30
2013,07,23,14,42,22.10
2013,07,23,14,43,21.90
2013,07,23,14,44,21.70
2013,07,23,14,45,21.50
2013,07,23,14,46,21.20
2013,07,23,14,47,20.90
2013,07,23,14,48,20.70
2013,07,23,14,49,20.50
2013,07,23,14,50,20.30
2013,07,23,14,51,20.30
2013,07,23,14,52,20.30
2013,07,23,14,53,20.30
2013,07,23,14,54,20.30
2013,07,23,14,55,20.30
2013,07,23,14,56,20.40
2013,07,23,14,57,20.40
2013,07,23,14,58,20.50
2013,07,23,14,59,20.60
2013,07,23,15,00,20.60
2013,07,23,15,01,20.50
2013,07,23,15,02,20.50
2013,07,23,15,03,20.60
2013,07,23,15,04,20.70
2013,07,23,15,05,20.90
2013,07,23,15,06,21.00
2013,07,23,15,07,21.00
2013,07,23,15,08,21.00
2013,07,23,15,09,20.80
2013,07,23,15,10,20.70
2013,07,23,15,11,20.60
2013,07,23,15,12,20.60
2013,07,23,15,13,20.60
2013,07,23,15,14,20.70
2013,07,23,15,15,20.80
2013,07,23,15,16,20.80
2013,07,23,15,17,20.90
2013,07,23,15,18,20.80
2013,07,23,15,19,20.80
2013,07,23,15,20,20.80
2013,07,23,15,21,20.80
2013,07,23,15,22,20.90
2013,07,23,15,23,21.00
2013,07,23,15,24,21.20
2013,07,23,15,25,21.30
2013,07,23,15,26,21.40
2013,07,23,15,27,21.50
2013,07,23,15,28,21.50
2013,07,23,15,29,21.40
2013,07,23,15,30,21.30
2013,07,23,15,31,21.20
2013,07,23,15,32,21.00
2013,07,23,15,33,20.90
2013,07,23,15,34,20.90
2013,07,23,15,35,20.80
2013,07,23,15,36,20.80
2013,07,23,15,37,20.80
2013,07,23,15,38,20.70
2013,07,23,15,39,20.60
2013,07,23,15,40,20.50
2013,07,23,15,41,20.40
2013,07,23,15,42,20.40
2013,07,23,15,43,20.40
2013,07,23,15,44,20.40
2013,07,23,15,45,20.50
2013,07,23,15,46,20.60
2013,07,23,15,47,20.80
2013,07,23,15,48,20.90
2013,07,23,15,49,21.00
2013,07,23,15,50,21.00
2013,07,23,15,51,20.90
2013,07,23,15,52,21.00
2013,07,23,15,53,21.10
2013,07,23,15,54,21.10
2013,07,23,15,55,21.20
2013,07,23,15,56,21.30
2013,07,23,15,57,21.30
2013,07,23,15,58,21.40
2013,07,23,15,59,21.40
2013,07,23,16,00,21.50
2013,07,23,16,01,21.70
2013,07,23,16,02,21.80
2013,07,23,16,03,21.70
2013,07,23,16,04,21.70
2013,07,23,16,05,21.70
2013,07,23,16,06,21.60
2013,07,23,16,07,21.60
2013,07,23,16,08,21.50
2013,07,23,16,09,21.50
2013,07,23,16,10,21.50
2013,07,23,16,11,21.60
2013,07,23,16,12,21.60
2013,07,23,16,13,21.60
2013,07,23,16,14,21.50
2013,07,23,16,15,21.50
2013,07,23,16,16,21.40
2013,07,23,16,17,21.40
2013,07,23,16,18,21.30
2013,07,23,16,19,21.30
2013,07,23,16,20,21.30
2013,07,23,16,21,21.30
2013,07,23,16,22,21.30
2013,07,23,16,23,21.30
2013,07,23,16,24,21.30
2013,07,23,16,25,21.30
2013,07,23,16,26,21.40
2013,07,23,16,27,21.50
2013,07,23,16,28,21.60
2013,07,23,16,29,21.50
2013,07,23,16,30,21.60
2013,07,23,16,31,21.60
2013,07,23,16,32,21.50
2013,07,23,16,33,21.40
2013,07,23,16,34,21.40
2013,07,23,16,35,21.50
2013,07,23,16,36,21.60
2013,07,23,16,37,21.70
2013,07,23,16,38,21.70
2013,07,23,16,39,21.70
2013,07,23,16,40,21.70
2013,07,23,16,41,21.70
2013,07,23,16,42,21.70
2013,07,23,16,43,21.70
2013,07,23,16,44,21.70
2013,07,23,16,45,21.80
2013,07,23,16,46,21.80
2013,07,23,16,47,21.80
2013,07,23,16,48,21.80
2013,07,23,16,49,21.70
2013,07,23,16,50,21.70
2013,07,23,16,51,21.70
2013,07,23,16,52,21.70
2013,07,23,16,53,21.70
2013,07,23,16,54,21.70
2013,07,23,16,55,21.70
2013,07,23,16,56,21.70
2013,07,23,16,57,21.70
2013,07,23,16,58,21.70
2013,07,23,16,59,21.60
2013,07,23,17,00,21.50
2013,07,23,17,01,21.50
2013,07,23,17,02,21.40
2013,07,23,17,03,21.40
2013,07,23,17,04,21.40
2013,07,23,17,05,21.40
2013,07,23,17,06,21.50
2013,07,23,17,07,21.50
2013,07,23,17,08,21.50
2013,07,23,17,09,21.60
2013,07,23,17,10,21.60
2013,07,23,17,11,21.60
2013,07,23,17,12,21.70
2013,07,23,17,13,21.70
2013,07,23,17,14,21.80
2013,07,23,17,15,21.90
2013,07,23,17,16,21.90
2013,07,23,17,17,21.90
2013,07,23,17,18,22.00
2013,07,23,17,19,22.00
2013,07,23,17,20,22.00
2013,07,23,17,21,22.00
2013,07,23,17,22,22.00
2013,07,23,17,23,22.00
2013,07,23,17,24,22.00
2013,07,23,17,25,22.00
2013,07,23,17,26,22.00
2013,07,23,17,27,22.10
2013,07,23,17,28,22.20
2013,07,23,17,29,22.30
2013,07,23,17,30,22.40
2013,07,23,17,31,22.50
2013,07,23,17,32,22.50
2013,07,23,17,33,22.60
2013,07,23,17,34,22.60
2013,07,23,17,35,22.50
2013,07,23,17,36,22.50
2013,07,23,17,37,22.40
2013,07,23,17,38,22.40
2013,07,23,17,39,22.30
2013,07,23,17,40,22.30
2013,07,23,17,41,22.20
2013,07,23,17,42,22.20
2013,07,23,17,43,22.20
2013,07,23,17,44,22.10
2013,07,23,17,45,22.10
2013,07,23,17,46,22.10
2013,07,23,17,47,22.10
2013,07,23,17,48,22.10
2013,07,23,17,49,22.00
2013,07,23,17,50,22.00
2013,07,23,17,51,22.00
2013,07,23,17,52,21.90
2013,07,23,17,53,21.80
2013,07,23,17,54,21.80
2013,07,23,17,55,21.80
2013,07,23,17,56,21.70
2013,07,23,17,57,21.60
2013,07,23,17,58,21.40
2013,07,23,17,59,21.40
2013,07,23,18,00,21.30
2013,07,23,18,01,21.20
2013,07,23,18,02,21.10
2013,07,23,18,03,21.10
2013,07,23,18,04,21.10
2013,07,23,18,05,21.10
2013,07,23,18,06,21.10
2013,07,23,18,07,21.10
2013,07,23,18,08,21.10
2013,07,23,18,09,21.00
2013,07,23,18,10,20.90
2013,07,23,18,11,20.80
2013,07,23,18,12,20.80
2013,07,23,18,13,20.80
2013,07,23,18,14,20.80
2013,07,23,18,15,20.90
2013,07,23,18,16,21.00
2013,07,23,18,17,21.10
2013,07,23,18,18,21.20
2013,07,23,18,19,21.30
2013,07,23,18,20,21.30
2013,07,23,18,21,21.40
2013,07,23,18,22,21.50